[[{"header":{"parameterUnit":"m.s-1","parameterCategory":1,"la1":30.2991,"la2":30.254,"lo1":-89.0895,"lo2":-89.0444,"dy":0.0017,"dx":0.0017,"nx":28,"ny":28,"refTime":"2024-03-05T09:00:00:Z","depth":0,"parameterNumber":2,"parameterNumberName":"U-component_of_WINDS"},"data":[0,0,0,0,0,0,0,0,0,0,0,0,0,0,0,0,0,0,0,0,0,0,0,0,0,0,0,0,0,0,0,0,0,0,0,0,0,0,0,0,0,0,0,0,0,0,0,0,0,0,0,0,0,0,0,0,0,0,-0.8008,-0.8007,0,-0.7883,-0.7882,-0.788,-0.7815,-0.7815,-0.7815,-0.7815,-0.7686,-0.7683,-0.7679,0,0,0,0,0,0,0,0,0,0,0,0,0,-0.819,-0.8187,-0.8008,-0.8006,-0.8005,-0.7883,-0.7882,-0.788,-0.7815,-0.7815,-0.7815,-0.7815,-0.7687,-0.7683,-0.7679,0,0,0,0,0,0,0,0,0,0,0,0,0,-0.8092,-0.8186,-0.8008,-0.7958,-0.7952,-0.7884,-0.7882,-0.7879,-0.7815,-0.7815,-0.7815,-0.7815,-0.7688,-0.7683,-0.7678,-0.765,0,0,-0.7663,-0.7661,0,0,0,0,0,0,0,0,-0.8098,-0.8086,-0.7967,-0.7961,-0.7955,-0.7865,-0.7898,-0.7803,-0.7815,-0.7867,-0.7815,-0.7815,-0.7745,-0.7736,-0.7712,-0.7644,-0.7639,-0.7663,-0.766,-0.7657,-0.7656,0,0,0,0,0,0,0,-0.8105,-0.8091,-0.7958,-0.7965,-0.7958,-0.7941,-0.7927,-0.788,-0.7808,-0.7863,-0.7858,-0.7844,-0.7742,-0.7718,-0.7709,-0.7637,-0.7663,-0.7658,-0.7655,-0.7653,-0.754,-0.754,0,0,0,0,0,0,-0.812,-0.8097,-0.7962,-0.7955,-0.8028,-0.7938,-0.7923,-0.7894,-0.7809,-0.7796,-0.7844,-0.7841,-0.7726,-0.7715,-0.7704,-0.7665,-0.7658,-0.7653,-0.765,-0.754,-0.754,-0.754,0,0,0,0,0,0,-0.8124,-0.8108,-0.7967,-0.8024,-0.8005,-0.7935,-0.7903,-0.7891,-0.7867,-0.7795,-0.7782,-0.7832,-0.7726,-0.7711,-0.7664,-0.766,-0.7651,-0.7646,-0.754,-0.754,-0.754,-0.7588,0,0,0,0,0,0,-0.8129,-0.811,-0.8099,-0.8025,-0.8002,-0.793,-0.7903,-0.7889,-0.7858,-0.7853,-0.778,-0.7768,-0.7724,-0.7672,-0.7659,-0.7653,-0.7642,-0.754,-0.754,-0.754,-0.7587,-0.759,-0.7593,0,0,0,0,0,-0.8136,-0.8117,-0.8099,-0.8083,-0.7987,-0.793,-0.7917,-0.7868,-0.7858,-0.7846,-0.78,-0.777,-0.7663,-0.7668,-0.7653,-0.7645,-0.754,-0.754,-0.754,-0.7585,-0.7589,-0.7593,0,0,0,0,0,0,-0.8192,-0.8106,-0.8085,-0.8041,-0.7993,-0.7919,-0.7902,-0.7873,-0.7827,-0.7824,-0.7765,-0.7749,-0.7707,-0.7671,-0.7678,-0.7614,-0.7598,-0.7595,-0.7638,-0.7641,-0.7644,-0.7653,-0.7638,0,0,0,0,0,-0.8199,-0.816,-0.8088,-0.8056,-0.8033,-0.7972,-0.7945,-0.7912,-0.786,-0.7839,-0.7789,-0.774,-0.7695,-0.7666,-0.7621,-0.7582,-0.7565,-0.7569,-0.7572,-0.7575,-0.7573,-0.7549,-0.755,-0.7539,-0.7539,-0.7539,0,0,-0.8213,-0.8162,-0.8141,-0.8066,-0.8025,-0.7986,-0.7955,-0.7915,-0.7886,-0.7832,-0.7785,-0.7748,-0.7688,-0.7645,-0.7624,-0.7614,-0.7572,-0.7575,-0.7578,-0.7573,-0.7549,-0.7551,-0.7552,-0.7539,-0.7539,-0.7539,0,0,-0.8219,-0.8177,-0.8146,-0.8106,-0.8045,-0.8004,-0.7997,-0.7927,-0.79,-0.7852,-0.7812,-0.7776,-0.77,-0.7659,-0.7628,-0.7621,-0.7592,-0.7608,-0.7623,-0.7601,-0.7602,-0.7603,-0.76,-0.7599,-0.7606,-0.7607,-0.7607,0,-0.8245,-0.8185,-0.8134,-0.8096,-0.8065,-0.8016,-0.7984,-0.7948,-0.7875,-0.7854,-0.7844,-0.7748,-0.7705,-0.7652,-0.765,-0.7627,-0.7617,-0.7615,-0.7606,-0.7606,-0.7606,-0.7602,-0.7602,-0.7609,-0.7609,-0.7608,-0.7608,0,-0.8219,-0.8178,-0.816,-0.8092,-0.8058,-0.8024,-0.7968,-0.794,-0.791,-0.7871,-0.7823,-0.777,-0.7713,-0.7698,-0.7668,-0.7641,-0.7637,-0.7618,-0.7601,-0.761,-0.7606,-0.7604,-0.7612,-0.7611,-0.7611,-0.761,0,0,-0.8254,-0.816,-0.8154,-0.8122,-0.8052,-0.8019,-0.7983,-0.7928,-0.7906,-0.7857,-0.7825,-0.7763,-0.7745,-0.7711,-0.7676,-0.7657,-0.7654,-0.764,-0.7638,-0.7644,-0.7621,-0.7635,-0.7635,-0.7635,-0.7635,-0.7635,-0.7626,0,-0.825,-0.8183,-0.8137,-0.8088,-0.8049,-0.8004,-0.7972,-0.7926,-0.7888,-0.785,-0.7809,-0.7766,-0.7746,-0.7725,-0.7704,-0.7659,-0.7649,-0.7659,-0.7604,-0.7603,-0.762,-0.7632,-0.7647,-0.7641,-0.7624,-0.7624,-0.7624,0,-0.8235,-0.8189,-0.8137,-0.8071,-0.8053,-0.8026,-0.7972,-0.7937,-0.7883,-0.7857,-0.782,-0.7785,-0.7745,-0.7733,-0.7677,-0.7685,-0.766,-0.7635,-0.7633,-0.7625,-0.7613,-0.7624,-0.7638,-0.7637,-0.7621,-0.7621,-0.7621,0,-0.8266,-0.8191,-0.815,-0.8124,-0.8047,-0.8029,-0.7996,-0.7942,-0.7913,-0.7866,-0.7846,-0.7796,-0.7768,-0.7729,-0.7681,-0.7677,-0.763,-0.7614,-0.7607,-0.7608,-0.7598,-0.7599,-0.7608,-0.7584,-0.7584,-0.7584,-0.7584,0,-0.8265,-0.8234,-0.8163,-0.8137,-0.8102,-0.805,-0.8016,-0.7979,-0.7932,-0.7899,-0.7856,-0.7826,-0.7765,-0.7727,-0.769,-0.7649,-0.7637,-0.7614,-0.7605,-0.7618,-0.762,-0.7599,-0.7598,-0.7584,-0.7584,-0.7584,-0.7584,0,-0.8293,-0.8243,-0.8195,-0.8127,-0.8109,-0.8086,-0.8027,-0.8001,-0.7962,-0.792,-0.7908,-0.7847,-0.78,-0.7749,-0.7685,-0.766,-0.7621,-0.7607,-0.7639,-0.7633,-0.7629,-0.763,-0.7624,-0.762,-0.76,-0.7601,-0.7601,0,-0.8295,-0.827,-0.82,-0.8175,-0.8143,-0.8103,-0.8073,-0.8021,-0.7991,-0.793,-0.7911,-0.7861,-0.7818,-0.7746,-0.7696,-0.7647,-0.7631,-0.7633,-0.7624,-0.7638,-0.7631,-0.7632,-0.7629,-0.7635,-0.7636,-0.7636,-0.7636,0,-0.8304,-0.8281,-0.8239,-0.8189,-0.8155,-0.8113,-0.8069,-0.8051,-0.7991,-0.796,-0.7912,-0.7879,-0.7815,-0.7766,-0.7711,-0.7677,-0.7646,-0.764,-0.7636,-0.7648,-0.7667,-0.7656,-0.7646,-0.764,-0.7639,-0.7639,-0.7639,-0.7639,-0.8318,-0.8294,-0.8241,-0.8196,-0.8158,-0.8119,-0.8091,-0.805,-0.8009,-0.7953,-0.7925,-0.7877,-0.7825,-0.7749,-0.7716,-0.7677,-0.7668,-0.7662,-0.766,-0.7659,-0.7662,-0.7675,-0.7667,-0.7667,-0.7667,-0.7667,-0.7667,0,-0.8324,-0.8288,-0.8247,-0.8188,-0.8153,-0.8129,-0.808,-0.8052,-0.8011,-0.7966,-0.7925,-0.7871,-0.7823,-0.777,-0.772,-0.77,-0.7685,-0.7688,-0.7689,-0.7681,-0.7674,-0.7682,-0.7701,-0.7701,-0.7701,-0.7701,-0.7701,-0.7701,-0.8323,-0.8282,-0.8253,-0.8193,-0.8157,-0.811,-0.8084,-0.8048,-0.8011,-0.7952,-0.7913,-0.788,-0.7831,-0.7777,-0.7733,-0.7718,-0.7701,-0.7709,-0.769,-0.7684,-0.7682,-0.7679,-0.7686,-0.7706,-0.7706,-0.77,-0.77,-0.77]},{"header":{"parameterUnit":"m.s-1","parameterCategory":1,"la1":30.2991,"la2":30.254,"lo1":-89.0895,"lo2":-89.0444,"dy":0.0017,"dx":0.0017,"nx":28,"ny":28,"refTime":"2024-03-05T09:00:00:Z","depth":0,"parameterNumber":3,"parameterNumberName":"V-component_of_WINDS"},"data":[0,0,0,0,0,0,0,0,0,0,0,0,0,0,0,0,0,0,0,0,0,0,0,0,0,0,0,0,0,0,0,0,0,0,0,0,0,0,0,0,0,0,0,0,0,0,0,0,0,0,0,0,0,0,0,0,0,0,0.785,0.7849,0,0.7788,0.7787,0.7786,0.7825,0.7827,0.7829,0.7831,0.7765,0.7761,0.7758,0,0,0,0,0,0,0,0,0,0,0,0,0,0.8,0.7997,0.785,0.7849,0.7848,0.7788,0.7787,0.7786,0.7825,0.7827,0.783,0.7832,0.7766,0.7762,0.7757,0,0,0,0,0,0,0,0,0,0,0,0,0,0.7936,0.7996,0.785,0.786,0.7861,0.7788,0.7787,0.7786,0.7825,0.7827,0.783,0.7833,0.7767,0.7762,0.7757,0.7669,0,0,0.7741,0.7739,0,0,0,0,0,0,0,0,0.7939,0.793,0.786,0.786,0.786,0.7817,0.7816,0.7747,0.7824,0.7838,0.7831,0.7834,0.778,0.7774,0.7756,0.7666,0.7663,0.774,0.7737,0.7735,0.7733,0,0,0,0,0,0,0,0.7944,0.7933,0.7825,0.7859,0.7859,0.7868,0.7862,0.7803,0.7794,0.7837,0.784,0.7832,0.778,0.7761,0.7754,0.7662,0.7741,0.7736,0.7733,0.7731,0.7497,0.7494,0,0,0,0,0,0,0.7948,0.7937,0.7827,0.7823,0.7907,0.7863,0.7856,0.7828,0.7795,0.7793,0.783,0.7834,0.7768,0.7761,0.7752,0.7646,0.7735,0.773,0.7727,0.75,0.7496,0.7493,0,0,0,0,0,0,0.7951,0.7938,0.783,0.7881,0.7868,0.7857,0.7825,0.7825,0.7806,0.7789,0.7788,0.7812,0.777,0.776,0.769,0.7645,0.7728,0.7723,0.7503,0.7499,0.7494,0.7434,0,0,0,0,0,0,0.7955,0.7939,0.7906,0.788,0.7865,0.7768,0.7823,0.7822,0.7797,0.7802,0.7772,0.7769,0.7771,0.7697,0.7684,0.7639,0.7719,0.7507,0.7501,0.7496,0.744,0.7428,0.7418,0,0,0,0,0,0.796,0.7891,0.7904,0.789,0.7823,0.7766,0.7757,0.7762,0.7793,0.776,0.7749,0.777,0.7652,0.769,0.7676,0.7628,0.751,0.7503,0.7496,0.7445,0.7431,0.7418,0,0,0,0,0,0,0.7911,0.7888,0.7902,0.7822,0.7796,0.7772,0.773,0.7746,0.7709,0.7716,0.7722,0.7715,0.7641,0.7628,0.767,0.7541,0.7586,0.7576,0.7552,0.7538,0.7527,0.7531,0.7715,0,0,0,0,0,0.7891,0.7846,0.7829,0.776,0.7746,0.774,0.7715,0.7721,0.7694,0.7683,0.7667,0.7639,0.7595,0.7566,0.7525,0.7439,0.7432,0.74,0.7389,0.738,0.737,0.7322,0.7307,0.747,0.747,0.747,0,0,0.7848,0.783,0.7802,0.7749,0.773,0.7683,0.773,0.7679,0.7644,0.7674,0.7607,0.7595,0.7564,0.7485,0.7449,0.7471,0.7324,0.7371,0.7364,0.7359,0.7313,0.7298,0.7284,0.7465,0.7466,0.7467,0,0,0.7747,0.773,0.767,0.7649,0.7619,0.7616,0.7602,0.7576,0.7569,0.7502,0.7524,0.7482,0.7408,0.7384,0.7363,0.7253,0.7271,0.724,0.7181,0.7134,0.7121,0.711,0.7069,0.7054,0.7231,0.7231,0.723,0,0.7698,0.7629,0.7637,0.7584,0.7559,0.7586,0.7525,0.7505,0.7462,0.7445,0.7471,0.7377,0.7358,0.7274,0.7247,0.7229,0.7212,0.7242,0.7122,0.7111,0.71,0.7062,0.7046,0.7227,0.7227,0.7228,0.7228,0,0.7569,0.7521,0.7476,0.7435,0.7406,0.7349,0.7348,0.7318,0.7327,0.732,0.7251,0.723,0.7184,0.7166,0.7173,0.7082,0.7096,0.7122,0.7167,0.7081,0.7044,0.703,0.7222,0.7223,0.7224,0.7225,0,0,0.7433,0.7398,0.7381,0.7362,0.7332,0.7294,0.7238,0.7195,0.7168,0.7138,0.709,0.7027,0.7051,0.7026,0.7032,0.6991,0.6904,0.7022,0.7021,0.6999,0.68,0.6779,0.6761,0.6917,0.6914,0.6912,0.6802,0,0.7328,0.7231,0.7237,0.7145,0.71,0.7126,0.7077,0.7052,0.7045,0.7005,0.6997,0.6951,0.6987,0.6972,0.6934,0.6923,0.6863,0.6931,0.687,0.6868,0.6875,0.6743,0.672,0.6618,0.6788,0.6785,0.6784,0,0.7192,0.7158,0.7062,0.7038,0.7019,0.6975,0.6936,0.6898,0.687,0.6868,0.6841,0.6853,0.6796,0.6844,0.6764,0.681,0.6786,0.6777,0.6773,0.6765,0.6819,0.6729,0.6585,0.6569,0.6761,0.6763,0.6765,0,0.71,0.7031,0.6964,0.6948,0.6918,0.6886,0.6872,0.6848,0.6821,0.6787,0.6769,0.6728,0.6705,0.6673,0.6673,0.6709,0.6592,0.6641,0.6587,0.6587,0.6559,0.656,0.6406,0.6547,0.6547,0.6548,0.6548,0,0.6981,0.6921,0.6922,0.6881,0.6814,0.6822,0.6755,0.6744,0.6722,0.6678,0.6698,0.6657,0.6661,0.6619,0.662,0.6552,0.6543,0.6538,0.6538,0.6535,0.6535,0.6517,0.6523,0.6544,0.6545,0.6545,0.6546,0,0.6866,0.6865,0.6793,0.6771,0.6764,0.6716,0.6697,0.6657,0.6652,0.6597,0.6584,0.6576,0.6528,0.6526,0.647,0.647,0.6388,0.6397,0.6397,0.6398,0.6344,0.6348,0.6171,0.6147,0.6306,0.6304,0.6303,0,0.6789,0.6743,0.6717,0.6689,0.6673,0.6629,0.6602,0.6608,0.6579,0.6545,0.6509,0.6463,0.6425,0.6347,0.6335,0.6292,0.63,0.6241,0.6293,0.6291,0.6296,0.6298,0.6292,0.6229,0.6228,0.6226,0.6225,0,0.6652,0.6653,0.6614,0.6575,0.6542,0.6511,0.6483,0.6459,0.6462,0.6428,0.6379,0.6351,0.6294,0.6247,0.6205,0.619,0.6207,0.6209,0.6194,0.6189,0.619,0.6186,0.6367,0.6213,0.6214,0.6215,0.6215,0.6216,0.6552,0.6512,0.6487,0.6442,0.6422,0.6395,0.6356,0.6347,0.6307,0.6261,0.6268,0.6212,0.6186,0.6132,0.6113,0.607,0.609,0.6068,0.6063,0.6057,0.605,0.6199,0.6063,0.6063,0.6063,0.6064,0.6064,0,0.6414,0.6399,0.6359,0.6318,0.6283,0.6304,0.6274,0.6242,0.6194,0.6168,0.6132,0.6075,0.6029,0.6015,0.5971,0.5939,0.5945,0.5927,0.5928,0.5924,0.6035,0.6052,0.5922,0.5922,0.5922,0.5922,0.5922,0.5922,0.6338,0.6271,0.627,0.6193,0.6179,0.6125,0.6106,0.608,0.606,0.5996,0.5958,0.595,0.5928,0.5883,0.5842,0.5839,0.582,0.5798,0.5798,0.5902,0.5916,0.5929,0.5945,0.5795,0.5794,0.5689,0.5688,0.5688]}]]